Location: Newark
(45.5000°N, 11.4167°E)
Time: 03:05:21
(UTC+00:00)

Courier 1B Rocket - Visible Passes

Search period start: 25 August 2019 00:00
Search period end: 04 September 2019 00:00
Orbit: 920 x 1202 km, 28.3° (Epoch: 24 August)

Date Brightness Start Highest point End Pass type
(mag) Time Alt. Az. Time Alt. Az. Time Alt. Az.
25 Aug 7.1 01:27:51 14° SSE 01:27:51 14° SSE 01:30:01 10° SE visible
25 Aug 6.8 03:14:13 13° SW 03:18:27 21° S 03:23:49 10° SE visible
26 Aug 6.7 02:16:58 19° S 02:17:37 19° S 02:22:42 10° SE visible
27 Aug 7.1 01:19:45 14° SE 01:19:45 14° SE 01:21:20 10° SE visible
27 Aug 6.7 03:06:07 15° SSW 03:09:15 20° S 03:14:27 10° SE visible
28 Aug 6.7 02:08:57 19° S 02:08:57 19° S 02:13:30 10° SE visible
28 Aug 6.9 03:56:37 10° SW 04:00:53 16° SSW 04:05:16 10° SSE visible
29 Aug 7.3 01:11:50 11° SE 01:11:50 11° SE 01:12:21 10° SE visible
29 Aug 6.7 02:58:13 16° SSW 03:00:04 18° S 03:04:49 10° SSE visible
30 Aug 6.8 02:01:11 17° SSE 02:01:11 17° SSE 02:04:05 10° SE visible
30 Aug 7.0 03:48:36 10° SW 03:51:39 13° SSW 03:54:45 10° S visible
31 Aug 6.8 02:50:37 15° SSW 02:50:53 15° SSW 02:54:49 10° SSE visible
01 Sep 7.2 01:53:44 12° SSE 01:53:44 12° SSE 01:54:25 10° SSE visible
02 Sep 7.1 02:43:21 11° S 02:43:21 11° S 02:44:03 10° S visible
